contact:dominique.lefevre@mio.osupytheas.fr, maurice.libes@osupytheas.fr, didier.mallarino@osupytheas.fr
Project:EMSO http://www.emso-fr.org/EMSO-France
Depth: 2436.0 m
Title:EMSO Ligure Ouest : Data MII capteur AQUADOPP
Date,Latitude,Longitude,X_East,Y_North,Z_Up,Amplitude_X,Amplitude_Y,Amplitude_Z,Batterie,SoundSpeed,Heading,Pitch,Roll,Pressure,TIS,Speed,Direction
, degrees North, degrees East, m.s-1, m.s-1,m.s-1, 1, 1, 1, Volt, m.s-1, degree, degree, degree, dbar, degree_C, m.s-1, degree
2023-02-08T00:04:03,42.805,6.029,-0.017,0.004,-0.009,104.0,105.0,102.0,13.4,1505.2,330.1,-0.8,1.8,2471.197,13.29,0.017,283.2
2023-02-08T00:07:03,42.805,6.029,-0.027,-0.023,-0.001,105.0,106.0,103.0,13.3,1505.2,321.2,-0.8,1.8,2471.228,13.29,0.035,229.6
2023-02-08T00:10:03,42.805,6.029,-0.005,-0.015,0.027,105.0,104.0,103.0,13.4,1505.2,328.8,-0.7,1.8,2471.199,13.29,0.015,198.4
2023-02-08T00:13:03,42.805,6.029,0.003,0.012,-0.014,105.0,104.0,103.0,13.3,1505.2,336.9,-0.8,1.8,2471.159,13.29,0.012,14.0
2023-02-08T00:16:03,42.805,6.029,-0.019,0.006,0.0,104.0,104.0,103.0,13.4,1505.2,321.6,-0.8,1.8,2471.221,13.29,0.019,287.5
2023-02-08T00:19:03,42.805,6.029,-0.031,0.0,-0.033,105.0,103.0,103.0,13.4,1505.2,315.0,-0.8,1.8,2471.157,13.29,0.03,270.0
2023-02-08T00:22:03,42.805,6.029,-0.028,-0.009,0.001,103.0,103.0,103.0,13.3,1505.2,330.3,-0.8,1.8,2471.198,13.29,0.029,252.2
2023-02-08T00:25:03,42.805,6.029,-0.003,0.001,-0.016,104.0,104.0,103.0,13.3,1505.2,321.3,-0.8,1.8,2471.166,13.29,0.003,288.4
2023-02-08T00:28:03,42.805,6.029,-0.019,0.003,0.0,105.0,104.0,103.0,13.4,1505.2,323.6,-0.8,1.8,2471.145,13.29,0.019,279.0
2023-02-08T00:31:03,42.805,6.029,-0.011,0.0,0.001,105.0,103.0,103.0,13.4,1505.2,326.9,-0.8,1.8,2471.124,13.29,0.011,270.0
2023-02-08T00:34:03,42.805,6.029,-0.012,0.0,-0.018,105.0,104.0,102.0,13.4,1505.2,322.0,-0.7,1.8,2471.181,13.29,0.012,270.0
2023-02-08T00:37:03,42.805,6.029,-0.019,-0.001,0.03,104.0,105.0,102.0,13.4,1505.2,325.7,-0.8,1.8,2471.14,13.29,0.019,267.0
2023-02-08T00:40:03,42.805,6.029,-0.016,-0.002,-0.015,103.0,104.0,103.0,13.4,1505.2,327.9,-0.8,1.8,2471.115,13.29,0.016,262.9
2023-02-08T00:43:03,42.805,6.029,-0.012,0.008,-0.016,104.0,105.0,102.0,13.4,1505.2,336.4,-0.8,1.8,2471.149,13.29,0.014,303.7
2023-02-08T00:46:03,42.805,6.029,-0.011,0.004,0.018,104.0,104.0,103.0,13.4,1505.2,322.4,-0.8,1.8,2471.13,13.29,0.011,290.0
2023-02-08T00:49:03,42.805,6.029,-0.039,0.027,0.003,105.0,105.0,103.0,13.3,1505.2,325.5,-0.7,1.8,2471.115,13.29,0.047,304.7
2023-02-08T00:52:03,42.805,6.029,-0.003,0.016,0.0,105.0,104.0,103.0,13.4,1505.2,319.7,-0.8,1.8,2471.11,13.29,0.016,349.4
2023-02-08T00:55:03,42.805,6.029,-0.021,0.021,-0.002,104.0,107.0,103.0,13.3,1505.2,328.4,-0.8,1.8,2471.162,13.29,0.029,315.0
2023-02-08T00:58:03,42.805,6.029,-0.006,-0.008,0.003,104.0,104.0,103.0,13.4,1505.2,327.8,-0.7,1.8,2471.148,13.29,0.01,216.9
2023-02-08T01:04:03,42.805,6.029,-0.012,0.014,0.011,105.0,105.0,105.0,13.4,1505.2,320.5,-0.8,1.8,2471.141,13.29,0.018,319.4
2023-02-08T01:07:03,42.805,6.029,-0.018,0.008,-0.017,105.0,104.0,103.0,13.4,1505.2,331.4,-0.8,1.8,2471.175,13.29,0.019,294.0
2023-02-08T01:10:03,42.805,6.029,-0.029,-0.024,-0.013,106.0,104.0,102.0,13.4,1505.2,337.6,-0.8,1.8,2471.165,13.29,0.037,230.4
2023-02-08T01:13:03,42.805,6.029,-0.018,-0.004,-0.03,105.0,103.0,103.0,13.4,1505.2,334.6,-0.8,1.8,2471.137,13.29,0.018,257.5
2023-02-08T01:16:03,42.805,6.029,-0.021,-0.009,-0.008,105.0,103.0,103.0,13.4,1505.2,319.2,-0.8,1.8,2471.18,13.29,0.022,246.8
2023-02-08T01:19:03,42.805,6.029,-0.024,-0.009,0.015,105.0,104.0,103.0,13.4,1505.2,327.8,-0.8,1.8,2471.125,13.29,0.025,249.4
2023-02-08T01:22:03,42.805,6.029,-0.008,-0.007,-0.026,105.0,104.0,103.0,13.4,1505.2,333.0,-0.8,1.8,2471.129,13.29,0.01,228.8
2023-02-08T01:25:03,42.805,6.029,0.011,-0.007,0.005,104.0,104.0,103.0,13.4,1505.2,339.7,-0.7,1.8,2471.151,13.29,0.013,122.5
2023-02-08T01:28:03,42.805,6.029,-0.024,-0.008,-0.024,106.0,105.0,102.0,13.4,1505.2,318.1,-0.8,1.8,2471.112,13.29,0.025,251.6
2023-02-08T01:31:03,42.805,6.029,0.009,-0.023,0.001,105.0,103.0,102.0,13.3,1505.2,324.3,-0.8,1.8,2471.137,13.29,0.024,158.6
2023-02-08T01:34:03,42.805,6.029,-0.006,0.003,0.003,105.0,105.0,102.0,13.3,1505.2,325.6,-0.8,1.8,2471.17,13.29,0.006,296.6
2023-02-08T01:37:03,42.805,6.029,-0.02,-0.002,0.016,105.0,104.0,103.0,13.3,1505.2,330.0,-0.7,1.8,2471.092,13.29,0.02,264.3
2023-02-08T01:40:03,42.805,6.029,-0.009,-0.001,-0.014,104.0,106.0,104.0,13.3,1505.2,328.3,-0.7,1.9,2471.132,13.29,0.009,263.7
2023-02-08T01:43:03,42.805,6.029,-0.038,0.009,-0.028,103.0,104.0,102.0,13.4,1505.2,331.6,-0.7,1.8,2471.1,13.29,0.039,283.3
2023-02-08T01:46:03,42.805,6.029,-0.016,-0.013,-0.019,105.0,105.0,104.0,13.3,1505.2,317.6,-0.8,1.8,2471.115,13.29,0.02,230.9
2023-02-08T01:49:03,42.805,6.029,-0.032,0.008,0.019,105.0,104.0,102.0,13.4,1505.2,336.5,-0.8,1.8,2471.115,13.29,0.032,284.0
2023-02-08T01:52:03,42.805,6.029,-0.016,-0.004,-0.003,105.0,104.0,102.0,13.4,1505.2,318.7,-0.8,1.8,2471.139,13.29,0.016,256.0
2023-02-08T01:55:03,42.805,6.029,0.0,0.006,-0.003,105.0,106.0,101.0,13.4,1505.2,329.0,-0.8,1.8,2471.108,13.29,0.006,0.0
2023-02-08T01:58:03,42.805,6.029,-0.002,-0.006,-0.037,105.0,105.0,102.0,13.4,1505.2,321.9,-0.8,1.8,2471.1,13.29,0.006,198.4
2023-02-08T02:04:03,42.805,6.029,-0.009,-0.006,-0.018,104.0,104.0,103.0,13.3,1505.2,336.9,-0.8,1.8,2471.176,13.29,0.01,236.3
2023-02-08T02:07:03,42.805,6.029,-0.031,0.008,-0.005,105.0,103.0,102.0,13.3,1505.2,321.8,-0.8,1.8,2471.164,13.29,0.032,284.5
2023-02-08T02:10:03,42.805,6.029,0.004,0.004,-0.004,105.0,102.0,104.0,13.4,1505.2,326.5,-0.8,1.8,2471.135,13.29,0.005,45.0
2023-02-08T02:13:03,42.805,6.029,-0.024,-0.004,-0.021,104.0,103.0,103.0,13.4,1505.2,322.3,-0.8,1.8,2471.112,13.29,0.024,260.5
2023-02-08T02:16:03,42.805,6.029,-0.002,-0.034,0.007,104.0,104.0,103.0,13.4,1505.2,318.6,-0.8,1.8,2471.124,13.29,0.034,183.4
2023-02-08T02:19:03,42.805,6.029,-0.016,-0.021,-0.033,102.0,104.0,104.0,13.4,1505.2,320.5,-0.8,1.8,2471.107,13.29,0.026,217.3
2023-02-08T02:22:03,42.805,6.029,-0.014,-0.012,-0.024,103.0,104.0,103.0,13.4,1505.2,335.4,-0.8,1.8,2471.102,13.29,0.018,229.4
2023-02-08T02:25:03,42.805,6.029,-0.013,-0.021,-0.006,104.0,104.0,102.0,13.3,1505.2,326.7,-0.7,1.8,2471.107,13.29,0.024,211.8
2023-02-08T02:28:03,42.805,6.029,-0.023,0.014,-0.001,104.0,104.0,102.0,13.3,1505.2,326.9,-0.7,1.8,2471.095,13.29,0.026,301.3
2023-02-08T02:31:03,42.805,6.029,-0.013,-0.03,-0.023,104.0,103.0,103.0,13.3,1505.2,322.5,-0.7,1.8,2471.087,13.29,0.032,203.4
2023-02-08T02:34:03,42.805,6.029,-0.005,-0.01,0.023,103.0,105.0,102.0,13.4,1505.2,336.9,-0.8,1.9,2471.1,13.29,0.011,206.6
2023-02-08T02:37:03,42.805,6.029,-0.022,-0.028,-0.018,105.0,103.0,102.0,13.3,1505.2,325.0,-0.8,1.8,2471.106,13.29,0.035,218.2
2023-02-08T02:40:03,42.805,6.029,-0.015,-0.01,-0.048,103.0,105.0,103.0,13.3,1505.2,336.9,-0.8,1.8,2471.141,13.29,0.018,236.3
2023-02-08T02:43:03,42.805,6.029,-0.004,-0.003,0.015,103.0,104.0,103.0,13.4,1505.2,322.9,-0.8,1.8,2471.069,13.29,0.005,233.1
2023-02-08T02:46:03,42.805,6.029,-0.019,-0.022,0.002,104.0,104.0,104.0,13.4,1505.2,326.3,-0.8,1.8,2471.126,13.29,0.029,220.8
2023-02-08T02:49:03,42.805,6.029,-0.025,-0.019,-0.015,105.0,103.0,105.0,13.3,1505.2,322.3,-0.8,1.8,2471.095,13.29,0.031,232.8
2023-02-08T02:52:03,42.805,6.029,-0.015,-0.002,0.019,104.0,103.0,103.0,13.3,1505.2,323.4,-0.8,1.8,2471.13,13.29,0.015,262.4
2023-02-08T02:55:03,42.805,6.029,-0.024,-0.015,-0.032,105.0,104.0,103.0,13.4,1505.2,331.5,-0.7,1.8,2471.057,13.29,0.028,238.0
2023-02-08T02:58:03,42.805,6.029,-0.024,-0.023,-0.041,103.0,104.0,103.0,13.3,1505.2,321.2,-0.8,1.8,2471.091,13.29,0.033,226.2
2023-02-08T03:04:03,42.805,6.029,-0.017,-0.009,0.001,104.0,105.0,102.0,13.3,1505.2,331.3,-0.8,1.8,2471.175,13.29,0.019,242.1
2023-02-08T03:07:03,42.805,6.029,-0.065,-0.02,-0.03,105.0,103.0,102.0,13.3,1505.2,323.1,-0.8,1.8,2471.155,13.29,0.068,252.9
2023-02-08T03:10:03,42.805,6.029,-0.034,-0.022,-0.033,106.0,103.0,105.0,13.4,1505.2,332.1,-0.8,1.8,2471.119,13.29,0.04,237.1
2023-02-08T03:13:03,42.805,6.029,-0.019,-0.018,0.003,104.0,104.0,103.0,13.4,1505.2,329.1,-0.8,1.9,2471.108,13.29,0.026,226.5
2023-02-08T03:16:03,42.805,6.029,-0.02,-0.023,-0.002,104.0,104.0,103.0,13.4,1505.2,321.0,-0.8,1.8,2471.155,13.29,0.03,221.0
2023-02-08T03:19:03,42.805,6.029,-0.024,-0.015,-0.006,105.0,103.0,105.0,13.4,1505.2,317.7,-0.8,1.8,2471.136,13.29,0.028,238.0
2023-02-08T03:22:03,42.805,6.029,-0.026,-0.018,-0.033,105.0,103.0,104.0,13.4,1505.2,330.9,-0.7,1.8,2471.068,13.29,0.031,235.3
2023-02-08T03:25:03,42.805,6.029,-0.03,-0.03,-0.009,105.0,105.0,103.0,13.4,1505.2,317.4,-0.8,1.8,2471.145,13.29,0.042,225.0
2023-02-08T03:28:03,42.805,6.029,-0.02,-0.018,0.001,104.0,106.0,103.0,13.4,1505.2,325.6,-0.8,1.8,2471.121,13.29,0.026,228.0
2023-02-08T03:31:03,42.805,6.029,-0.04,-0.015,-0.04,105.0,104.0,103.0,13.3,1505.2,326.9,-0.8,1.8,2471.151,13.29,0.042,249.4
2023-02-08T03:34:03,42.805,6.029,-0.036,-0.02,-0.013,106.0,103.0,103.0,13.3,1505.2,324.3,-0.7,1.8,2471.102,13.29,0.041,240.9
2023-02-08T03:37:03,42.805,6.029,-0.032,-0.015,-0.016,105.0,104.0,103.0,13.3,1505.2,330.9,-0.8,1.8,2471.1,13.29,0.035,244.9
2023-02-08T03:40:03,42.805,6.029,-0.037,-0.016,0.009,105.0,104.0,103.0,13.4,1505.2,334.3,-0.7,1.8,2471.115,13.29,0.04,246.6
2023-02-08T03:43:03,42.805,6.029,-0.009,-0.018,0.003,104.0,104.0,102.0,13.4,1505.2,337.7,-0.8,1.8,2471.095,13.29,0.02,206.6
2023-02-08T03:46:03,42.805,6.029,-0.024,-0.011,-0.027,104.0,104.0,103.0,13.4,1505.2,328.8,-0.8,1.8,2471.097,13.29,0.026,245.4
2023-02-08T03:49:03,42.805,6.029,-0.011,-0.028,-0.017,104.0,104.0,104.0,13.4,1505.2,320.4,-0.8,1.8,2471.109,13.29,0.03,201.4
2023-02-08T03:52:03,42.805,6.029,-0.016,-0.007,-0.016,105.0,104.0,103.0,13.3,1505.2,323.2,-0.8,1.8,2471.153,13.29,0.017,246.4
2023-02-08T03:55:03,42.805,6.029,-0.023,-0.042,-0.041,103.0,105.0,103.0,13.3,1505.2,329.8,-0.8,1.8,2471.171,13.29,0.047,208.7
2023-02-08T03:58:03,42.805,6.029,-0.017,-0.008,-0.007,104.0,104.0,103.0,13.3,1505.2,322.3,-0.8,1.8,2471.131,13.29,0.018,244.8
2023-02-08T04:04:03,42.805,6.029,-0.034,0.003,-0.02,106.0,104.0,103.0,13.4,1505.2,336.9,-0.8,1.8,2471.19,13.29,0.034,275.0
2023-02-08T04:07:03,42.805,6.029,-0.026,-0.014,0.004,105.0,104.0,103.0,13.4,1505.2,318.3,-0.8,1.8,2471.167,13.29,0.029,241.7
2023-02-08T04:10:03,42.805,6.029,-0.029,-0.031,-0.044,105.0,104.0,103.0,13.4,1505.2,322.5,-0.8,1.8,2471.149,13.29,0.042,223.1
2023-02-08T04:13:03,42.805,6.029,-0.022,-0.017,-0.021,105.0,104.0,103.0,13.3,1505.2,326.3,-0.8,1.8,2471.178,13.29,0.027,232.3
2023-02-08T04:16:03,42.805,6.029,-0.031,-0.004,0.002,106.0,103.0,104.0,13.4,1505.2,322.5,-0.8,1.8,2471.121,13.29,0.031,262.7
2023-02-08T04:19:03,42.805,6.029,-0.018,0.0,0.016,105.0,104.0,103.0,13.3,1505.2,331.1,-0.8,1.8,2471.132,13.29,0.018,270.0
2023-02-08T04:22:03,42.805,6.029,-0.023,-0.009,0.001,105.0,103.0,102.0,13.4,1505.2,317.3,-0.8,1.8,2471.121,13.29,0.024,248.6
2023-02-08T04:25:03,42.805,6.029,-0.025,-0.023,-0.03,105.0,103.0,104.0,13.4,1505.2,319.0,-0.8,1.8,2471.149,13.29,0.033,227.4
2023-02-08T04:28:03,42.805,6.029,-0.023,-0.029,-0.041,104.0,104.0,104.0,13.4,1505.2,333.0,-0.8,1.8,2471.17,13.29,0.037,218.4
2023-02-08T04:31:03,42.805,6.029,-0.048,-0.002,-0.026,105.0,104.0,104.0,13.3,1505.2,324.7,-0.8,1.8,2471.095,13.29,0.048,267.6
2023-02-08T04:34:03,42.805,6.029,-0.034,-0.027,-0.009,106.0,103.0,104.0,13.4,1505.2,327.0,-0.8,1.8,2471.144,13.29,0.043,231.5
2023-02-08T04:37:03,42.805,6.029,-0.015,-0.007,0.006,103.0,105.0,104.0,13.3,1505.2,330.5,-0.8,1.8,2471.129,13.29,0.016,245.0
2023-02-08T04:40:03,42.805,6.029,-0.027,-0.012,0.002,105.0,105.0,103.0,13.4,1505.2,333.4,-0.7,1.8,2471.16,13.29,0.029,246.0
2023-02-08T04:43:03,42.805,6.029,-0.033,0.001,-0.003,105.0,104.0,104.0,13.3,1505.2,333.0,-0.8,1.8,2471.151,13.29,0.033,271.7
2023-02-08T04:46:03,42.805,6.029,-0.054,-0.018,-0.045,104.0,104.0,103.0,13.3,1505.2,315.5,-0.8,1.8,2471.18,13.29,0.056,251.6
2023-02-08T04:49:03,42.805,6.029,-0.02,-0.011,-0.016,105.0,104.0,103.0,13.4,1505.2,325.5,-0.8,1.8,2471.147,13.29,0.022,241.2
2023-02-08T04:52:03,42.805,6.029,-0.036,-0.011,0.0,106.0,105.0,103.0,13.4,1505.2,318.1,-0.8,1.8,2471.188,13.29,0.037,253.0
2023-02-08T04:55:03,42.805,6.029,-0.02,-0.019,-0.019,105.0,104.0,102.0,13.3,1505.2,329.1,-0.8,1.8,2471.145,13.29,0.027,226.5
2023-02-08T04:58:03,42.805,6.029,-0.037,0.005,-0.022,105.0,104.0,103.0,13.4,1505.2,332.1,-0.7,1.8,2471.142,13.29,0.037,277.7
2023-02-08T05:04:03,42.805,6.029,-0.039,-0.004,0.019,106.0,104.0,103.0,13.4,1505.2,322.4,-0.7,1.8,2471.198,13.28,0.039,264.1
2023-02-08T05:07:03,42.805,6.029,-0.037,0.001,-0.041,105.0,104.0,103.0,13.4,1505.2,326.8,-0.8,1.8,2471.226,13.29,0.037,271.5
2023-02-08T05:10:03,42.805,6.029,-0.019,0.002,-0.015,104.0,105.0,103.0,13.4,1505.2,334.3,-0.7,1.8,2471.195,13.29,0.019,276.0
2023-02-08T05:13:03,42.805,6.029,-0.034,0.002,-0.006,105.0,105.0,103.0,13.4,1505.2,324.0,-0.8,1.8,2471.191,13.29,0.034,273.4
2023-02-08T05:16:03,42.805,6.029,-0.043,0.005,0.007,106.0,104.0,102.0,13.3,1505.2,318.6,-0.8,1.8,2471.188,13.29,0.043,276.6
2023-02-08T05:19:03,42.805,6.029,-0.035,-0.009,-0.019,105.0,104.0,103.0,13.4,1505.2,319.9,-0.8,1.8,2471.194,13.29,0.036,255.6
2023-02-08T05:22:03,42.805,6.029,-0.031,-0.024,0.0,105.0,104.0,103.0,13.3,1505.2,321.0,-0.8,1.8,2471.168,13.29,0.039,232.3
2023-02-08T05:25:03,42.805,6.029,-0.026,-0.014,-0.001,106.0,104.0,103.0,13.4,1505.2,318.0,-0.8,1.8,2471.174,13.29,0.029,241.7
2023-02-08T05:28:03,42.805,6.029,-0.045,-0.019,-0.003,106.0,104.0,103.0,13.3,1505.2,318.7,-0.7,1.8,2471.208,13.29,0.048,247.1
2023-02-08T05:31:03,42.805,6.029,-0.027,-0.013,-0.051,106.0,105.0,104.0,13.3,1505.2,322.2,-0.8,1.9,2471.188,13.29,0.029,244.3
2023-02-08T05:34:03,42.805,6.029,-0.05,0.005,-0.007,106.0,104.0,102.0,13.4,1505.2,332.2,-0.8,1.8,2471.204,13.29,0.05,275.7
2023-02-08T05:37:03,42.805,6.029,-0.034,-0.011,-0.021,104.0,104.0,104.0,13.4,1505.2,320.9,-0.7,1.8,2471.204,13.29,0.035,252.1
2023-02-08T05:40:03,42.805,6.029,-0.024,0.003,-0.021,104.0,104.0,103.0,13.4,1505.2,329.6,-0.8,1.9,2471.139,13.29,0.024,277.1
2023-02-08T05:43:03,42.805,6.029,-0.04,-0.007,0.002,105.0,106.0,103.0,13.4,1505.2,334.7,-0.8,1.8,2471.163,13.29,0.04,260.1
2023-02-08T05:46:03,42.805,6.029,-0.021,-0.009,-0.003,104.0,106.0,104.0,13.4,1505.2,319.2,-0.7,1.8,2471.199,13.29,0.022,246.8
2023-02-08T05:49:03,42.805,6.029,-0.033,-0.003,-0.021,106.0,105.0,102.0,13.3,1505.2,324.2,-0.8,1.8,2471.214,13.29,0.033,264.8
2023-02-08T05:52:03,42.805,6.029,-0.02,0.002,0.001,106.0,104.0,103.0,13.4,1505.2,324.9,-0.8,1.8,2471.188,13.29,0.02,275.7
2023-02-08T05:55:03,42.805,6.029,-0.049,-0.014,-0.004,106.0,104.0,103.0,13.4,1505.2,330.3,-0.7,1.9,2471.21,13.29,0.05,254.1
2023-02-08T05:58:03,42.805,6.029,-0.045,-0.017,-0.032,106.0,104.0,103.0,13.4,1505.2,319.5,-0.7,1.8,2471.214,13.29,0.048,249.3
2023-02-08T06:04:03,42.805,6.029,-0.036,-0.001,0.003,106.0,106.0,103.0,13.4,1505.2,327.6,-0.8,1.8,2471.279,13.28,0.036,268.4
2023-02-08T06:07:03,42.805,6.029,-0.02,0.0,0.011,106.0,104.0,104.0,13.4,1505.2,331.6,-0.8,1.8,2471.268,13.29,0.02,270.0
2023-02-08T06:10:03,42.805,6.029,-0.041,-0.01,0.004,105.0,105.0,103.0,13.4,1505.2,317.6,-0.8,1.8,2471.282,13.29,0.042,256.3
2023-02-08T06:13:03,42.805,6.029,-0.025,-0.002,-0.017,105.0,105.0,103.0,13.4,1505.2,328.7,-0.8,1.8,2471.28,13.29,0.025,265.4
2023-02-08T06:16:03,42.805,6.029,-0.049,-0.009,-0.039,105.0,105.0,103.0,13.4,1505.2,329.1,-0.8,1.8,2471.244,13.29,0.049,259.6
2023-02-08T06:19:03,42.805,6.029,-0.034,0.024,-0.035,106.0,105.0,103.0,13.4,1505.2,331.0,-0.8,1.8,2471.21,13.29,0.041,305.2
2023-02-08T06:22:03,42.805,6.029,-0.038,0.002,-0.014,105.0,105.0,103.0,13.3,1505.2,330.9,-0.8,1.8,2471.264,13.29,0.038,273.0
2023-02-08T06:25:03,42.805,6.029,-0.032,0.009,-0.036,107.0,104.0,103.0,13.4,1505.2,326.3,-0.7,1.8,2471.264,13.29,0.033,285.7
2023-02-08T06:28:03,42.805,6.029,-0.03,-0.009,-0.037,106.0,105.0,103.0,13.4,1505.2,328.3,-0.7,1.8,2471.243,13.29,0.031,253.3
2023-02-08T06:31:03,42.805,6.029,-0.027,0.0,0.001,105.0,104.0,104.0,13.4,1505.2,331.2,-0.8,1.8,2471.231,13.29,0.026,270.0
2023-02-08T06:34:03,42.805,6.029,-0.031,0.007,0.0,105.0,106.0,103.0,13.3,1505.2,328.2,-0.7,1.8,2471.285,13.29,0.031,282.7
2023-02-08T06:37:03,42.805,6.029,-0.015,0.007,-0.001,105.0,104.0,103.0,13.3,1505.2,324.1,-0.8,1.8,2471.265,13.29,0.016,295.0
2023-02-08T06:40:03,42.805,6.029,-0.035,0.007,-0.022,106.0,104.0,102.0,13.3,1505.2,331.1,-0.8,1.8,2471.265,13.29,0.035,281.3
2023-02-08T06:43:03,42.805,6.029,-0.052,0.011,-0.035,105.0,104.0,103.0,13.3,1505.2,329.8,-0.8,1.8,2471.308,13.29,0.053,281.9
2023-02-08T06:46:03,42.805,6.029,-0.017,0.011,0.006,104.0,104.0,103.0,13.3,1505.2,338.3,-0.7,1.8,2471.292,13.29,0.02,302.9
2023-02-08T06:49:03,42.805,6.029,-0.037,0.008,0.007,106.0,103.0,103.0,13.3,1505.2,329.5,-0.8,1.8,2471.299,13.29,0.037,282.2
2023-02-08T06:52:03,42.805,6.029,-0.052,0.0,-0.022,104.0,106.0,103.0,13.4,1505.2,321.8,-0.8,1.8,2471.312,13.29,0.052,270.0
2023-02-08T06:55:03,42.805,6.029,-0.034,0.019,-0.015,105.0,105.0,103.0,13.3,1505.2,329.6,-0.8,1.8,2471.268,13.29,0.038,299.2
2023-02-08T06:58:03,42.805,6.029,-0.048,0.017,0.0,103.0,105.0,103.0,13.4,1505.2,325.4,-0.8,1.8,2471.319,13.29,0.05,289.5
2023-02-08T07:04:03,42.805,6.029,-0.035,-0.004,-0.052,104.0,104.0,102.0,13.4,1505.2,329.0,-0.8,1.8,2471.342,13.29,0.035,263.5
2023-02-08T07:07:03,42.805,6.029,-0.028,0.025,0.011,104.0,104.0,102.0,13.4,1505.2,339.7,-0.8,1.8,2471.344,13.29,0.037,311.8
2023-02-08T07:10:03,42.805,6.029,-0.007,0.003,-0.012,105.0,104.0,105.0,13.4,1505.2,336.9,-0.7,1.8,2471.332,13.29,0.007,293.2
2023-02-08T07:13:03,42.805,6.029,-0.035,0.009,0.006,104.0,104.0,104.0,13.4,1505.2,317.3,-0.8,1.8,2471.326,13.29,0.036,284.4
2023-02-08T07:16:03,42.805,6.029,-0.023,0.002,-0.011,104.0,104.0,102.0,13.4,1505.2,337.8,-0.8,1.8,2471.335,13.29,0.023,275.0
2023-02-08T07:19:03,42.805,6.029,-0.033,0.007,-0.001,105.0,104.0,102.0,13.3,1505.2,316.6,-0.7,1.8,2471.312,13.29,0.033,282.0
2023-02-08T07:22:03,42.805,6.029,-0.021,0.0,-0.022,104.0,104.0,103.0,13.3,1505.2,327.6,-0.8,1.8,2471.332,13.29,0.021,270.0
2023-02-08T07:25:03,42.805,6.029,-0.024,0.002,0.012,104.0,104.0,103.0,13.4,1505.2,333.0,-0.8,1.8,2471.306,13.29,0.024,274.8
2023-02-08T07:28:03,42.805,6.029,-0.038,0.02,0.011,106.0,106.0,102.0,13.4,1505.2,324.7,-0.7,1.8,2471.314,13.29,0.042,297.8
2023-02-08T07:31:03,42.805,6.029,-0.05,0.022,-0.018,104.0,104.0,103.0,13.3,1505.2,331.9,-0.8,1.8,2471.334,13.29,0.054,293.7
2023-02-08T07:34:03,42.805,6.029,-0.021,-0.002,-0.025,104.0,105.0,103.0,13.3,1505.2,337.6,-0.8,1.9,2471.294,13.29,0.021,264.6
2023-02-08T07:37:03,42.805,6.029,-0.016,0.019,0.012,104.0,103.0,103.0,13.3,1505.2,333.8,-0.7,1.8,2471.355,13.29,0.024,319.9
2023-02-08T07:40:03,42.805,6.029,-0.026,0.01,-0.001,104.0,103.0,103.0,13.4,1505.2,336.3,-0.8,1.8,2471.327,13.29,0.027,291.0
2023-02-08T07:43:03,42.805,6.029,-0.028,0.008,-0.006,104.0,105.0,102.0,13.4,1505.2,325.0,-0.8,1.8,2471.333,13.29,0.029,285.9
2023-02-08T07:46:03,42.805,6.029,-0.019,-0.006,-0.021,104.0,104.0,103.0,13.3,1505.2,323.1,-0.8,1.8,2471.357,13.29,0.019,252.5
2023-02-08T07:49:03,42.805,6.029,-0.035,-0.003,-0.014,104.0,103.0,103.0,13.4,1505.2,329.9,-0.8,1.9,2471.362,13.29,0.035,265.1
2023-02-08T07:52:03,42.805,6.029,-0.046,-0.017,-0.04,105.0,105.0,102.0,13.3,1505.2,316.6,-0.8,1.8,2471.345,13.29,0.049,249.7
2023-02-08T07:55:03,42.805,6.029,-0.033,0.01,-0.011,104.0,104.0,102.0,13.4,1505.2,323.6,-0.8,1.8,2471.377,13.29,0.034,286.9
2023-02-08T07:58:03,42.805,6.029,-0.045,0.001,-0.019,104.0,105.0,102.0,13.3,1505.2,337.3,-0.8,1.8,2471.411,13.29,0.045,271.3
2023-02-08T08:04:03,42.805,6.029,-0.02,0.004,-0.022,105.0,104.0,103.0,13.3,1505.2,317.6,-0.8,1.8,2471.398,13.29,0.02,281.3
2023-02-08T08:07:03,42.805,6.029,-0.029,-0.01,-0.016,105.0,104.0,103.0,13.3,1505.2,318.1,-0.7,1.8,2471.414,13.29,0.03,251.0
2023-02-08T08:10:03,42.805,6.029,-0.014,0.02,-0.006,105.0,106.0,107.0,13.3,1505.2,330.4,-0.8,1.8,2471.442,13.29,0.024,325.0
2023-02-08T08:13:03,42.805,6.029,-0.031,0.0,-0.02,105.0,105.0,102.0,13.3,1505.2,320.4,-0.8,1.8,2471.4,13.29,0.03,270.0
2023-02-08T08:16:03,42.805,6.029,-0.034,0.016,-0.001,105.0,105.0,103.0,13.4,1505.2,333.4,-0.8,1.8,2471.377,13.29,0.037,295.2
2023-02-08T08:19:03,42.805,6.029,-0.013,0.017,0.005,106.0,105.0,102.0,13.3,1505.2,337.8,-0.8,1.8,2471.394,13.29,0.021,322.6
2023-02-08T08:22:03,42.805,6.029,-0.013,-0.007,-0.025,105.0,105.0,102.0,13.3,1505.2,323.9,-0.8,1.8,2471.369,13.29,0.014,241.7
2023-02-08T08:25:03,42.805,6.029,-0.021,0.012,-0.02,105.0,104.0,103.0,13.4,1505.2,319.7,-0.7,1.8,2471.375,13.29,0.024,299.7
2023-02-08T08:28:03,42.805,6.029,-0.017,-0.015,-0.009,105.0,104.0,104.0,13.4,1505.2,326.8,-0.8,1.8,2471.36,13.29,0.022,228.6
2023-02-08T08:31:03,42.805,6.029,-0.02,0.001,0.018,105.0,105.0,103.0,13.4,1505.2,326.3,-0.8,1.8,2471.366,13.29,0.02,272.9
2023-02-08T08:34:03,42.805,6.029,-0.051,0.017,-0.023,106.0,104.0,104.0,13.3,1505.2,327.3,-0.8,1.8,2471.344,13.29,0.053,288.4
2023-02-08T08:37:03,42.805,6.029,-0.009,0.008,0.003,105.0,105.0,103.0,13.4,1505.2,321.4,-0.8,1.8,2471.349,13.29,0.012,311.6
2023-02-08T08:40:03,42.805,6.029,-0.019,0.006,-0.011,105.0,105.0,105.0,13.4,1505.2,325.4,-0.8,1.8,2471.331,13.29,0.019,287.5
2023-02-08T08:43:03,42.805,6.029,-0.028,0.011,-0.003,104.0,104.0,103.0,13.3,1505.2,331.0,-0.7,1.8,2471.375,13.29,0.03,291.4
2023-02-08T08:46:03,42.805,6.029,-0.026,0.004,-0.016,104.0,104.0,104.0,13.4,1505.2,326.0,-0.7,1.8,2471.38,13.29,0.026,278.7
2023-02-08T08:49:03,42.805,6.029,-0.034,-0.001,-0.02,104.0,105.0,103.0,13.4,1505.2,333.0,-0.8,1.9,2471.392,13.29,0.034,268.3
2023-02-08T08:52:03,42.805,6.029,-0.038,-0.002,-0.006,104.0,104.0,103.0,13.3,1505.2,324.3,-0.8,1.8,2471.34,13.29,0.038,267.0
2023-02-08T08:55:03,42.805,6.029,-0.022,-0.017,0.008,105.0,104.0,102.0,13.3,1505.2,320.0,-0.7,1.8,2471.386,13.29,0.027,232.3
2023-02-08T08:58:03,42.805,6.029,-0.007,-0.002,-0.004,105.0,104.0,102.0,13.3,1505.2,325.0,-0.7,1.8,2471.405,13.29,0.007,254.1
2023-02-08T09:04:03,42.805,6.029,-0.011,0.01,-0.017,105.0,104.0,102.0,13.3,1505.2,337.5,-0.8,1.8,2471.371,13.29,0.014,312.3
2023-02-08T09:07:03,42.805,6.029,-0.026,-0.003,-0.008,104.0,105.0,103.0,13.4,1505.2,318.6,-0.8,1.8,2471.406,13.29,0.026,263.4
2023-02-08T09:10:03,42.805,6.029,-0.041,0.0,-0.002,106.0,104.0,102.0,13.3,1505.2,318.7,-0.8,1.8,2471.386,13.29,0.041,270.0
2023-02-08T09:13:03,42.805,6.029,-0.006,-0.007,-0.002,105.0,105.0,103.0,13.4,1505.2,332.1,-0.7,1.8,2471.351,13.29,0.009,220.6
2023-02-08T09:16:03,42.805,6.029,-0.012,0.0,0.017,105.0,104.0,102.0,13.3,1505.2,333.0,-0.7,1.8,2471.374,13.29,0.012,270.0
2023-02-08T09:19:03,42.805,6.029,-0.021,0.013,0.001,103.0,104.0,104.0,13.4,1505.2,334.3,-0.8,1.8,2471.399,13.29,0.024,301.8
2023-02-08T09:22:03,42.805,6.029,-0.022,-0.001,-0.016,105.0,104.0,103.0,13.3,1505.2,314.4,-0.7,1.8,2471.363,13.29,0.022,267.4
2023-02-08T09:25:03,42.805,6.029,-0.023,0.009,0.002,104.0,104.0,103.0,13.4,1505.2,331.3,-0.8,1.8,2471.362,13.29,0.024,291.4
2023-02-08T09:28:03,42.805,6.029,-0.024,0.006,-0.015,105.0,104.0,103.0,13.4,1505.2,327.3,-0.7,1.8,2471.394,13.29,0.024,284.0
2023-02-08T09:31:03,42.805,6.029,-0.03,-0.006,-0.031,104.0,105.0,103.0,13.4,1505.2,320.3,-0.8,1.8,2471.383,13.29,0.03,258.7
2023-02-08T09:34:03,42.805,6.029,-0.038,-0.008,-0.01,104.0,104.0,103.0,13.3,1505.2,324.0,-0.7,1.8,2471.357,13.29,0.038,258.1
2023-02-08T09:37:03,42.805,6.029,-0.01,-0.018,-0.005,105.0,105.0,103.0,13.3,1505.2,324.1,-0.8,1.8,2471.352,13.29,0.02,209.1
2023-02-08T09:40:03,42.805,6.029,-0.019,-0.009,-0.036,104.0,104.0,102.0,13.4,1505.2,330.7,-0.8,1.8,2471.355,13.29,0.021,244.7
2023-02-08T09:43:03,42.805,6.029,-0.015,0.0,0.005,105.0,104.0,102.0,13.4,1505.2,336.1,-0.8,1.8,2471.364,13.29,0.015,270.0
2023-02-08T09:46:03,42.805,6.029,-0.034,0.013,-0.041,104.0,104.0,103.0,13.4,1505.2,330.7,-0.8,1.8,2471.379,13.29,0.036,290.9
2023-02-08T09:49:03,42.805,6.029,-0.022,0.0,-0.008,104.0,107.0,103.0,13.4,1505.2,334.1,-0.8,1.8,2471.375,13.29,0.022,270.0
2023-02-08T09:52:03,42.805,6.029,-0.013,-0.004,-0.004,104.0,105.0,103.0,13.3,1505.2,325.8,-0.8,1.8,2471.37,13.29,0.013,252.9